Location: Augustenthal
(51.7167°N, 10.2833°E)
Time: 08:29:35
(UTC+00:00)

Cosmos 2154 Rocket - Pass Details

Date: 18 May 2021
Orbit: 965 x 997 km, 82.9° (Epoch: 20 June)

Event Time Altitude Azimuth Distance (km) Brightness Sun altitude
Rises 20:35:18 0° 348° (NNW) 3,717 8.3 -10.5°
Reaches altitude 10° 20:37:51 10° 347° (NNW) 2,760 7.5 -10.7°
Maximum altitude 20:44:08 72° 265° (W) 1,036 4.3 -11.3°
Drops below altitude 10° 20:50:21 10° 182° (S) 2,719 5.9 -11.8°
Enters shadow 20:50:45 - 182° (S) 2,873 6.0 -11.9°
